User: anonymous   Login
Location: Houston
(29.7631°N, 95.3631°W)
Time: 13:20:46
(UTC-05:00)
Language:

ITAMSAT 1 - Orbit

View from above orbital plane
View from above orbital plane
View from above satellite
View from above satellite

Ground track
Ground track

The orbit data is extracted from the following two-line orbital elements,

1 22826U 93061D   19138.86336861 -.00000011  00000-0  13581-4 0  9997
2 22826  98.8960 126.7947 0010057  79.1741 281.0572 14.30391883337749
Epoch (UTC): 18 May 2019 20:43:15
Eccentricity: 0.0010057
inclination: 98.8960°
perigee height: 783 km
apogee height: 797 km
right ascension of ascending node: 126.7947°
argument of perigee: 79.1741°
revolutions per day: 14.30391883
mean anomaly at epoch: 281.0572°
orbit number at epoch: 33774

The dashed part of the orbit path shows where the satellite is in the earth's shadow,  

DLR